Time,TemperatureF,DewpointF,PressureIn,WindDirection,WindDirectionDegrees,WindSpeedMPH,WindSpeedGustMPH,Humidity,HourlyPrecipIn,Conditions,Clouds,dailyrainin,SolarRadiationWatts/m^2,SoftwareType,DateUTC
2013-09-09 00:13:00,58.0,52.0,-100.00,SW,220,3.0,8.0,80,0.00,,,-99.99,0.000000,,2013-09-09 05:13:00,
2013-09-09 00:23:00,58.0,52.0,-100.00,SW,220,3.0,8.0,80,0.00,,,-99.99,0.000000,,2013-09-09 05:23:00,
2013-09-09 00:34:00,58.0,52.0,-100.00,SW,220,3.0,8.0,80,0.00,,,-99.99,0.000000,,2013-09-09 05:34:00,
2013-09-09 01:12:00,56.0,53.0,-100.00,SSW,210,2.0,6.0,91,0.01,,,0.01,0.000000,,2013-09-09 06:12:00,
2013-09-09 01:21:00,56.0,53.0,-100.00,SSW,210,2.0,6.0,91,0.01,,,0.01,0.000000,,2013-09-09 06:21:00,
2013-09-09 01:32:00,56.0,53.0,-100.00,SSW,210,2.0,6.0,91,0.01,,,0.01,0.000000,,2013-09-09 06:32:00,
2013-09-09 02:11:00,56.0,54.0,-100.00,SW,234,1.0,4.0,93,0.00,,,0.01,0.000000,,2013-09-09 07:11:00,
2013-09-09 02:22:00,56.0,54.0,-100.00,SW,234,1.0,4.0,93,0.00,,,0.01,0.000000,,2013-09-09 07:22:00,
2013-09-09 02:32:00,56.0,54.0,-100.00,SW,234,1.0,4.0,93,0.00,,,0.01,0.000000,,2013-09-09 07:32:00,
2013-09-09 03:11:00,57.0,55.0,-100.00,South,191,1.0,3.0,94,0.00,,,0.01,0.000000,,2013-09-09 08:11:00,
2013-09-09 03:22:00,57.0,55.0,-100.00,South,191,1.0,3.0,94,0.00,,,0.01,0.000000,,2013-09-09 08:22:00,
2013-09-09 03:32:00,57.0,55.0,-100.00,South,191,1.0,3.0,94,0.00,,,0.01,0.000000,,2013-09-09 08:32:00,
2013-09-09 04:12:00,57.0,55.0,-100.00,SSE,165,1.0,3.0,94,0.00,,,0.01,0.000000,,2013-09-09 09:12:00,
2013-09-09 04:22:00,57.0,55.0,-100.00,SSE,165,1.0,3.0,94,0.00,,,0.01,0.000000,,2013-09-09 09:22:00,
2013-09-09 04:33:00,57.0,55.0,-100.00,SSE,165,1.0,3.0,94,0.00,,,0.01,0.000000,,2013-09-09 09:33:00,
2013-09-09 05:12:00,58.0,56.0,-100.00,South,182,2.0,5.0,94,0.00,,,0.01,0.000000,,2013-09-09 10:12:00,
2013-09-09 05:23:00,58.0,56.0,-100.00,South,182,2.0,5.0,94,0.00,,,0.01,0.000000,,2013-09-09 10:23:00,
2013-09-09 05:32:00,58.0,56.0,-100.00,South,182,2.0,5.0,94,0.00,,,0.01,0.000000,,2013-09-09 10:32:00,
2013-09-09 06:12:00,58.0,57.0,-100.00,South,171,1.0,4.0,97,0.03,,,0.04,0.000000,,2013-09-09 11:12:00,
2013-09-09 06:22:00,58.0,57.0,-100.00,South,171,1.0,4.0,97,0.03,,,0.04,0.000000,,2013-09-09 11:22:00,
2013-09-09 06:34:00,58.0,57.0,-100.00,South,171,1.0,4.0,97,0.03,,,0.04,0.000000,,2013-09-09 11:34:00,
2013-09-09 07:12:00,59.0,58.0,-100.00,SW,229,1.0,4.0,97,0.00,,,0.04,1.000000,,2013-09-09 12:12:00,
2013-09-09 07:22:00,59.0,58.0,-100.00,SW,229,1.0,4.0,97,0.00,,,0.04,1.000000,,2013-09-09 12:22:00,
2013-09-09 07:32:00,59.0,58.0,-100.00,SW,229,1.0,4.0,97,0.00,,,0.04,1.000000,,2013-09-09 12:32:00,
2013-09-09 08:11:00,59.0,58.0,-100.00,SW,217,1.0,6.0,97,0.00,,,0.04,18.000000,,2013-09-09 13:11:00,
2013-09-09 08:22:00,59.0,58.0,-100.00,SW,217,1.0,6.0,97,0.00,,,0.04,18.000000,,2013-09-09 13:22:00,
2013-09-09 08:32:00,59.0,58.0,-100.00,SW,217,1.0,6.0,97,0.00,,,0.04,18.000000,,2013-09-09 13:32:00,
2013-09-09 09:12:00,60.0,59.0,-100.00,SSW,208,1.0,5.0,97,0.00,,,0.04,37.000000,,2013-09-09 14:12:00,
2013-09-09 09:22:00,60.0,59.0,-100.00,SSW,208,1.0,5.0,97,0.00,,,0.04,37.000000,,2013-09-09 14:22:00,
2013-09-09 09:32:00,60.0,59.0,-100.00,SSW,208,1.0,5.0,97,0.00,,,0.04,37.000000,,2013-09-09 14:32:00,
2013-09-09 10:11:00,61.0,60.0,-100.00,SSW,198,2.0,6.0,97,0.00,,,0.04,45.000000,,2013-09-09 15:11:00,
2013-09-09 10:22:00,61.0,60.0,-100.00,SSW,198,2.0,6.0,97,0.00,,,0.04,45.000000,,2013-09-09 15:22:00,
2013-09-09 10:34:00,61.0,60.0,-100.00,SSW,198,2.0,6.0,97,0.00,,,0.04,45.000000,,2013-09-09 15:34:00,
2013-09-09 11:13:00,62.0,61.0,-100.00,South,172,1.0,6.0,96,0.01,,,0.05,90.000000,,2013-09-09 16:13:00,
2013-09-09 11:24:00,62.0,61.0,-100.00,South,172,1.0,6.0,96,0.01,,,0.05,90.000000,,2013-09-09 16:24:00,
2013-09-09 11:34:00,62.0,61.0,-100.00,South,172,1.0,6.0,96,0.01,,,0.05,90.000000,,2013-09-09 16:34:00,
2013-09-09 12:12:00,64.0,63.0,-100.00,SSE,155,3.0,10.0,95,0.00,,,0.05,132.000000,,2013-09-09 17:12:00,
2013-09-09 12:23:00,64.0,63.0,-100.00,SSE,155,3.0,10.0,95,0.00,,,0.05,132.000000,,2013-09-09 17:23:00,
2013-09-09 12:34:00,64.0,63.0,-100.00,SSE,155,3.0,10.0,95,0.00,,,0.05,132.000000,,2013-09-09 17:34:00,
2013-09-09 13:13:00,65.0,63.0,-100.00,South,175,4.0,9.0,93,0.01,,,0.06,221.000000,,2013-09-09 18:13:00,
2013-09-09 13:22:00,65.0,63.0,-100.00,South,175,4.0,9.0,93,0.01,,,0.06,221.000000,,2013-09-09 18:22:00,
2013-09-09 13:32:00,65.0,63.0,-100.00,South,175,4.0,9.0,93,0.01,,,0.06,221.000000,,2013-09-09 18:32:00,
2013-09-09 14:12:00,66.0,64.0,-100.00,South,189,4.0,12.0,93,0.00,,,0.06,204.000000,,2013-09-09 19:12:00,
2013-09-09 14:22:00,66.0,64.0,-100.00,South,189,4.0,12.0,93,0.00,,,0.06,204.000000,,2013-09-09 19:22:00,
2013-09-09 14:32:00,66.0,64.0,-100.00,South,189,4.0,12.0,93,0.00,,,0.06,204.000000,,2013-09-09 19:32:00,
2013-09-09 15:12:00,69.0,66.0,-100.00,South,170,4.0,12.0,90,0.00,,,0.06,281.000000,,2013-09-09 20:12:00,
2013-09-09 15:22:00,69.0,66.0,-100.00,South,170,4.0,12.0,90,0.00,,,0.06,281.000000,,2013-09-09 20:22:00,
2013-09-09 15:32:00,69.0,66.0,-100.00,South,170,4.0,12.0,90,0.00,,,0.06,281.000000,,2013-09-09 20:32:00,
2013-09-09 16:12:00,70.0,67.0,-100.00,SSE,153,3.0,6.0,89,0.00,,,0.06,171.000000,,2013-09-09 21:12:00,
2013-09-09 16:22:00,70.0,67.0,-100.00,SSE,153,3.0,6.0,89,0.00,,,0.06,171.000000,,2013-09-09 21:22:00,
2013-09-09 16:34:00,70.0,67.0,-100.00,SSE,153,3.0,6.0,89,0.00,,,0.06,171.000000,,2013-09-09 21:34:00,
2013-09-09 17:13:00,70.0,67.0,-100.00,East,88,4.0,7.0,89,0.00,,,0.06,146.000000,,2013-09-09 22:13:00,
2013-09-09 17:24:00,70.0,67.0,-100.00,East,88,4.0,7.0,89,0.00,,,0.06,146.000000,,2013-09-09 22:24:00,
2013-09-09 17:34:00,70.0,67.0,-100.00,East,88,4.0,7.0,89,0.00,,,0.06,146.000000,,2013-09-09 22:34:00,
2013-09-09 18:12:00,70.0,67.0,-100.00,East,83,2.0,7.0,91,0.00,,,0.06,70.000000,,2013-09-09 23:12:00,
2013-09-09 18:22:00,70.0,67.0,-100.00,East,83,2.0,7.0,91,0.00,,,0.06,70.000000,,2013-09-09 23:22:00,
2013-09-09 18:34:00,70.0,67.0,-100.00,East,83,2.0,7.0,91,0.00,,,0.06,70.000000,,2013-09-09 23:34:00,
2013-09-09 19:12:00,71.0,68.0,-100.00,South,179,2.0,6.0,91,0.00,,,0.06,68.000000,,2013-09-10 00:12:00,
2013-09-09 19:22:00,71.0,68.0,-100.00,South,179,2.0,6.0,91,0.00,,,0.06,68.000000,,2013-09-10 00:22:00,
2013-09-09 19:32:00,71.0,68.0,-100.00,South,179,2.0,6.0,91,0.00,,,0.06,68.000000,,2013-09-10 00:32:00,
2013-09-09 20:11:00,69.0,68.0,-100.00,NNE,32,0.0,3.0,95,0.00,,,0.06,14.000000,,2013-09-10 01:11:00,
2013-09-09 20:21:00,69.0,68.0,-100.00,NNE,32,0.0,3.0,95,0.00,,,0.06,14.000000,,2013-09-10 01:21:00,
2013-09-09 20:32:00,69.0,68.0,-100.00,NNE,32,0.0,3.0,95,0.00,,,0.06,14.000000,,2013-09-10 01:32:00,
2013-09-09 21:12:00,69.0,68.0,-100.00,WSW,241,2.0,7.0,96,0.00,,,0.06,0.000000,,2013-09-10 02:12:00,
2013-09-09 21:22:00,69.0,68.0,-100.00,WSW,241,2.0,7.0,96,0.00,,,0.06,0.000000,,2013-09-10 02:22:00,
2013-09-09 21:32:00,69.0,68.0,-100.00,WSW,241,2.0,7.0,96,0.00,,,0.06,0.000000,,2013-09-10 02:32:00,
2013-09-09 22:12:00,67.0,66.0,-100.00,SE,144,0.0,0.0,98,0.00,,,0.06,0.000000,,2013-09-10 03:12:00,
2013-09-09 22:22:00,67.0,66.0,-100.00,SE,144,0.0,0.0,98,0.00,,,0.06,0.000000,,2013-09-10 03:22:00,
2013-09-09 22:35:00,67.0,66.0,-100.00,SE,144,0.0,0.0,98,0.00,,,0.06,0.000000,,2013-09-10 03:35:00,
2013-09-09 23:13:00,67.0,67.0,-100.00,SE,126,1.0,4.0,99,0.03,,,0.09,0.000000,,2013-09-10 04:13:00,
2013-09-09 23:24:00,67.0,67.0,-100.00,SE,126,1.0,4.0,99,0.03,,,0.09,0.000000,,2013-09-10 04:24:00,
2013-09-09 23:34:00,67.0,67.0,-100.00,SE,126,1.0,4.0,99,0.03,,,0.09,0.000000,,2013-09-10 04:34:00,